Вернуться в каталог

SL-16 DEB

АктивенLEO
NORAD 22551·DEBRIS·🇷🇺 Russia

Запущен Dec 25, 1992 с Baikonur Cosmodrome

Loading…

Ближайшие Пролёты (ближайшие 24 часа)

TLE

СвежийSource: Space-Track

Эпоха: Sep 14, 2026, 14:25 UTC

1 22551U 92093HM  26257.60131610  .00000058  00000-0  72001-4 0  9995
2 22551  70.8626 221.5959 0095852 229.5978 129.6742 13.97162846715999

Отслеживайте SL-16 DEB в реальном времени с AllMySat

Download on the App Store